Probability
10 10 6 6 3 0 0 0 0 0 0 3 0 3 6 6 3 3 3 13 23 39 52 61 77 90 87 84 87 87 87 94 87 84 77 81 81 84 84 81 84 84 84 81 84 81 84 84 84
3 3 0 3 0 0 0 0 0 0 3 3 6 10 10 13 13 16 10 19 35 45 52 61 71 81 84 84 94 87 90 87 87 77 77 81 77 77 77 81 77 81 84 84 77 84 84 84 84
3 3 3 3 0 0 0 0 0 6 6 6 10 10 10 13 13 13 13 23 35 45 48 58 71 81 87 87 87 84 84 81 84 84 77 77 71 71 68 71 71 71 71 77 71 74 81 87 84
6 3 3 3 0 0 0 0 3 6 6 6 3 10 10 16 16 13 19 29 39 39 52 58 74 71 74 84 81 77 71 81 81 77 74 71 71 71 68 68 68 68 65 74 74 74 71 77 81
3 6 6 3 0 0 0 0 3 6 6 3 6 6 13 16 16 16 23 29 32 42 48 58 77 71 68 74 77 71 84 77 74 77 77 74 74 74 71 71 65 68 61 65 71 68 71 71 77
3 6 3 0 0 0 0 0 0 6 0 6 3 6 6 10 10 13 16 19 29 35 42 61 71 71 68 68 71 74 84 77 81 74 74 68 71 71 65 68 68 68 65 68 65 65 68 71 74
3 3 3 0 0 0 0 0 0 0 0 3 3 10 6 10 10 6 6 16 19 35 52 48 55 58 65 65 65 68 71 74 74 71 71 68 71 74 74 71 68 65 71 68 61 71 68 71 77
6 3 3 0 0 0 0 0 3 3 0 3 3 6 3 3 3 6 10 13 26 29 35 39 39 45 45 52 65 68 68 65 68 68 71 71 65 55 65 68 68 68 61 58 61 68 58 65 65
6 3 0 0 0 0 0 0 3 6 3 3 3 6 6 3 6 10 10 13 19 23 23 23 29 29 35 42 52 52 58 58 61 58 61 58 35 35 48 55 68 58 48 52 48 61 61 65 71
3 6 0 0 0 0 3 0 0 0 3 3 3 10 13 6 13 10 10 10 6 10 16 13 13 19 19 39 35 35 39 39 39 39 32 23 16 19 35 48 58 61 52 45 48 52 52 48 29
0 3 0 0 0 0 0 0 0 0 0 3 3 13 19 13 13 10 10 3 3 3 6 13 6 6 16 19 19 19 23 23 19 19 19 13 10 6 6 6 13 19 32 26 19 26 13 23 16
0 0 0 0 0 0 0 0 3 3 3 6 6 13 19 19 16 10 6 3 3 3 10 10 10 6 6 10 16 13 13 13 16 16 13 10 6 6 6 6 3 3 6 6 6 10 10 10 13
0 0 0 0 0 0 0 0 3 3 10 10 6 13 13 16 19 13 6 6 3 3 3 6 10 6 6 3 10 13 13 16 13 13 10 10 10 10 3 6 6 10 10 6 6 6 6 10 6
0 0 0 0 0 0 3 3 3 3 6 10 10 10 13 13 13 13 6 3 6 3 3 6 6 3 3 3 10 13 13 16 13 10 10 13 10 10 6 6 10 10 10 6 6 6 6 3 6
0 0 0 0 0 0 0 0 3 3 6 6 3 3 10 10 13 6 6 3 6 6 3 3 6 6 6 6 13 6 10 13 6 10 6 10 10 6 10 10 10 10 6 3 3 6 3 3 6
0 0 0 0 0 0 0 0 3 3 3 3 3 3 3 6 6 6 6 6 6 6 3 3 3 3 10 10 10 10 10 10 10 6 6 6 3 6 13 13 13 13 6 3 3 3 3 3 3
0 0 0 0 0 0 0 0 3 3 0 3 3 3 3 3 6 6 6 6 10 10 6 6 10 6 6 6 10 10 10 13 10 10 16 13 6 6 13 16 10 10 6 6 10 6 3 3 3
0 0 0 0 0 0 0 0 3 3 3 6 6 3 3 3 3 3 6 13 13 13 10 10 10 6 6 10 6 3 3 13 16 16 16 16 19 10 10 10 10 6 6 6 6 6 3 3 0
0 0 0 0 0 0 0 0 3 3 3 6 6 6 6 10 13 6 3 10 10 10 10 10 10 6 10 13 10 6 13 16 16 16 10 13 13 13 10 16 10 6 6 3 6 6 3 3 0
0 0 0 0 0 0 0 0 0 0 0 6 6 6 10 10 10 13 13 10 6 3 6 10 13 6 10 13 13 13 13 16 13 16 13 16 19 13 13 13 13 3 3 6 3 6 6 3 0
0 0 0 0 3 3 3 0 3 0 6 6 6 13 10 10 10 6 10 10 10 6 3 6 13 13 10 19 23 23 16 16 16 13 13 16 16 13 16 10 6 6 6 6 6 6 6 6 3
0 0 0 0 0 0 0 3 0 0 3 3 10 6 10 13 13 10 10 10 10 10 10 10 10 19 16 19 29 29 23 23 19 16 10 13 16 19 16 13 10 6 10 10 6 6 6 6 6
0 0 0 0 0 0 0 3 0 0 0 6 10 16 13 13 16 13 13 10 6 6 6 10 16 23 23 19 26 26 23 19 16 13 13 13 10 19 16 13 13 10 10 6 6 6 6 6 3
0 0 0 0 0 0 0 0 0 0 0 3 10 19 16 16 16 16 13 10 10 10 13 19 19 23 26 26 26 26 23 23 19 16 16 10 10 19 16 16 16 10 10 6 6 6 6 6 3
0 0 0 0 0 0 0 0 0 0 0 3 10 13 19 16 19 16 13 10 10 13 16 23 23 19 23 26 29 26 23 23 23 19 16 13 19 19 16 16 13 10 10 10 6 6 6 6 3
0 0 0 0 0 0 0 0 0 0 0 6 10 10 19 13 13 16 13 13 13 16 23 23 23 23 19 23 23 19 19 16 19 19 13 19 19 16 16 13 10 10 10 10 6 6 6 6 6
0 0 0 0 0 0 0 0 0 0 3 3 6 13 13 13 13 13 13 13 13 13 19 23 23 26 26 23 23 16 23 23 13 19 16 16 19 19 19 13 16 16 13 13 10 6 6 13 6
0 0 0 0 0 0 0 0 0 3 6 6 13 16 23 16 23 19 13 13 13 13 13 23 19 19 23 19 19 29 26 26 23 23 19 19 19 19 23 19 19 16 16 16 16 13 13 10 10
0 0 0 0 0 0 0 0 3 0 3 10 10 19 26 19 19 23 19 13 13 16 19 19 13 16 19 23 16 29 26 23 23 23 23 23 19 19 23 19 16 16 16 16 13 13 6 6 6
0 0 0 0 0 0 0 3 0 3 10 16 16 16 16 16 16 16 10 6 10 19 19 16 13 13 13 16 16 19 16 23 23 23 16 16 26 26 16 19 19 19 13 13 13 10 10 10 6
Height
5890 5889 5890 5890 5890 5888 5887 5887 5886 5886 5886 5886 5886 5885 5885 5885 5886 5888 5885 5883 5883 5882 5882 5881 5881 5880 5880 5880 5880 5881 5881 5881 5881 5881 5881 5882 5882 5883 5885 5886 5887 5888 5890 5891 5892 5893 5894 5895 5896
5892 5892 5893 5893 5891 5890 5890 5889 5888 5888 5888 5888 5888 5887 5887 5887 5887 5886 5885 5885 5885 5884 5883 5883 5882 5882 5881 5881 5882 5882 5882 5882 5883 5883 5883 5884 5884 5885 5886 5887 5888 5889 5890 5891 5892 5893 5894 5895 5896
5894 5894 5896 5894 5893 5892 5892 5891 5891 5890 5890 5890 5890 5890 5889 5889 5888 5887 5887 5886 5886 5886 5885 5884 5884 5883 5883 5883 5883 5884 5884 5884 5884 5885 5885 5885 5886 5886 5887 5888 5888 5889 5890 5891 5892 5893 5894 5895 5896
5897 5897 5897 5897 5895 5894 5894 5893 5893 5892 5893 5892 5892 5892 5891 5890 5889 5889 5888 5888 5888 5887 5887 5886 5886 5885 5885 5885 5885 5885 5885 5886 5886 5886 5887 5887 5887 5887 5888 5888 5889 5889 5890 5891 5892 5893 5894 5895 5896
5899 5899 5899 5898 5897 5897 5896 5895 5895 5895 5895 5894 5894 5893 5892 5892 5891 5890 5890 5890 5889 5889 5888 5888 5887 5887 5887 5887 5886 5886 5887 5887 5887 5888 5888 5888 5888 5889 5889 5889 5889 5890 5890 5891 5892 5893 5894 5895 5896
5901 5901 5901 5900 5899 5898 5898 5897 5897 5897 5897 5896 5895 5894 5893 5893 5892 5892 5891 5891 5891 5891 5890 5889 5889 5888 5888 5888 5888 5888 5888 5888 5888 5889 5889 5889 5889 5889 5889 5889 5890 5890 5890 5891 5892 5893 5894 5895 5896
5903 5903 5902 5902 5901 5901 5900 5899 5899 5899 5899 5898 5897 5896 5895 5894 5894 5893 5892 5892 5892 5892 5892 5891 5891 5890 5890 5890 5889 5889 5889 5889 5890 5890 5890 5890 5890 5890 5890 5890 5890 5890 5891 5891 5892 5893 5894 5894 5895
5904 5905 5904 5903 5903 5903 5902 5901 5901 5900 5900 5900 5899 5898 5897 5896 5895 5894 5894 5894 5894 5894 5893 5893 5892 5892 5892 5891 5891 5891 5891 5891 5891 5891 5891 5891 5891 5891 5891 5890 5890 5891 5891 5891 5892 5893 5894 5894 5895
5906 5907 5906 5905 5905 5905 5904 5903 5903 5902 5902 5902 5901 5900 5899 5897 5896 5896 5896 5896 5895 5895 5895 5895 5894 5894 5894 5893 5893 5893 5893 5892 5892 5892 5892 5892 5892 5891 5891 5891 5891 5891 5891 5891 5892 5892 5893 5894 5894
5908 5908 5908 5907 5907 5906 5906 5905 5905 5904 5904 5903 5902 5901 5900 5899 5898 5898 5897 5897 5897 5897 5897 5896 5896 5896 5895 5895 5895 5894 5894 5894 5894 5893 5893 5892 5892 5892 5892 5891 5891 5891 5891 5891 5891 5892 5892 5893 5893
5909 5909 5909 5909 5908 5907 5907 5907 5906 5906 5905 5905 5904 5903 5902 5901 5900 5900 5899 5899 5899 5899 5899 5898 5898 5897 5897 5896 5896 5896 5896 5895 5895 5894 5894 5893 5893 5892 5892 5891 5891 5891 5891 5891 5891 5891 5892 5892 5893
5910 5910 5910 5910 5909 5909 5909 5908 5907 5907 5907 5907 5905 5905 5904 5903 5902 5902 5902 5901 5901 5900 5900 5899 5899 5899 5898 5898 5897 5897 5896 5896 5895 5895 5894 5894 5893 5893 5892 5892 5891 5891 5891 5891 5890 5891 5891 5892 5892
5910 5910 5910 5911 5910 5910 5910 5909 5909 5909 5909 5908 5907 5906 5906 5905 5904 5904 5903 5903 5902 5902 5901 5901 5900 5900 5899 5899 5898 5898 5897 5896 5896 5895 5894 5894 5893 5893 5892 5892 5891 5891 5891 5890 5890 5890 5890 5891 5891
5910 5911 5911 5911 5911 5911 5911 5911 5910 5911 5910 5910 5909 5908 5907 5907 5906 5906 5905 5904 5904 5903 5903 5902 5902 5901 5900 5900 5899 5899 5898 5897 5896 5896 5895 5894 5893 5893 5892 5891 5891 5890 5890 5890 5889 5889 5889 5889 5889
5910 5911 5912 5912 5912 5911 5912 5912 5912 5912 5911 5911 5910 5909 5909 5908 5908 5907 5906 5906 5905 5905 5904 5903 5903 5902 5901 5901 5900 5899 5898 5897 5897 5896 5896 5895 5894 5893 5892 5891 5891 5890 5890 5889 5889 5888 5888 5888 5888
5910 5911 5911 5912 5912 5912 5913 5913 5913 5912 5912 5911 5911 5910 5910 5910 5909 5908 5908 5907 5906 5906 5905 5904 5904 5903 5902 5902 5901 5900 5899 5898 5898 5897 5896 5895 5894 5893 5892 5891 5890 5889 5888 5888 5888 5887 5887 5887 5886
5909 5909 5910 5912 5911 5911 5912 5912 5912 5912 5912 5912 5911 5911 5911 5910 5910 5909 5909 5908 5907 5906 5906 5905 5904 5903 5903 5902 5901 5900 5899 5899 5898 5897 5896 5895 5894 5893 5892 5891 5889 5888 5887 5887 5886 5886 5885 5885 5885
5908 5908 5909 5910 5911 5911 5911 5912 5912 5912 5912 5912 5912 5911 5911 5911 5910 5910 5909 5909 5908 5907 5906 5906 5905 5904 5903 5902 5901 5900 5900 5899 5898 5897 5896 5895 5894 5893 5892 5890 5889 5888 5887 5886 5885 5885 5884 5883 5883
5906 5907 5908 5909 5910 5910 5910 5911 5911 5912 5912 5912 5911 5911 5911 5911 5910 5910 5909 5909 5908 5907 5906 5906 5905 5904 5903 5903 5902 5901 5900 5899 5898 5897 5896 5895 5894 5893 5891 5890 5888 5887 5885 5884 5883 5882 5882 5881 5881
5904 5906 5907 5908 5908 5908 5909 5909 5910 5911 5911 5911 5911 5910 5910 5910 5910 5909 5909 5909 5908 5907 5906 5905 5905 5904 5903 5902 5902 5901 5900 5899 5898 5896 5895 5894 5893 5892 5890 5889 5887 5885 5884 5882 5881 5880 5879 5879 5878
5903 5905 5906 5906 5906 5907 5908 5909 5909 5909 5909 5910 5909 5909 5909 5909 5909 5908 5908 5908 5907 5906 5905 5905 5904 5903 5902 5902 5901 5900 5899 5898 5897 5896 5894 5893 5892 5890 5889 5888 5886 5884 5882 5880 5879 5878 5877 5876 5875
5901 5903 5904 5904 5905 5905 5906 5907 5908 5907 5907 5908 5908 5908 5908 5908 5907 5907 5906 5906 5906 5905 5904 5903 5903 5902 5901 5900 5900 5899 5898 5897 5896 5894 5893 5892 5891 5889 5887 5886 5884 5883 5880 5878 5877 5875 5874 5873 5872
5899 5900 5901 5902 5902 5903 5904 5904 5906 5905 5906 5906 5906 5906 5906 5906 5906 5906 5905 5905 5904 5903 5902 5902 5901 5900 5899 5899 5898 5897 5896 5895 5894 5893 5892 5891 5889 5888 5886 5884 5883 5881 5879 5876 5875 5873 5872 5871 5869
5896 5897 5898 5899 5900 5901 5902 5902 5904 5904 5904 5904 5904 5904 5905 5905 5904 5904 5903 5903 5902 5901 5901 5900 5899 5898 5898 5897 5896 5895 5895 5893 5893 5891 5890 5889 5888 5886 5884 5882 5880 5878 5876 5874 5872 5870 5869 5867 5866
5893 5895 5896 5896 5897 5898 5899 5899 5902 5902 5902 5902 5902 5902 5902 5902 5902 5901 5901 5901 5900 5900 5899 5898 5897 5897 5896 5895 5893 5892 5892 5891 5890 5889 5888 5887 5885 5883 5881 5879 5877 5875 5873 5871 5869 5868 5866 5864 5862
5889 5891 5893 5894 5894 5895 5896 5897 5900 5900 5899 5899 5899 5899 5899 5900 5899 5899 5899 5898 5898 5897 5896 5895 5895 5894 5893 5892 5891 5890 5889 5888 5887 5886 5885 5884 5882 5880 5878 5876 5874 5872 5870 5868 5866 5864 5862 5860 5859
5885 5887 5889 5890 5891 5892 5893 5894 5896 5896 5897 5896 5896 5896 5897 5897 5896 5896 5896 5896 5895 5894 5893 5893 5892 5891 5890 5888 5888 5887 5886 5885 5884 5883 5882 5880 5878 5876 5874 5872 5870 5868 5866 5864 5862 5860 5858 5856 5855
5882 5883 5885 5886 5886 5887 5889 5890 5893 5893 5893 5893 5893 5893 5893 5893 5893 5893 5892 5892 5892 5891 5891 5890 5889 5888 5887 5885 5885 5884 5883 5881 5880 5879 5877 5876 5874 5872 5870 5867 5865 5863 5861 5860 5858 5856 5854 5852 5850
5877 5879 5880 5881 5883 5884 5885 5889 5889 5889 5890 5890 5890 5890 5890 5890 5889 5889 5889 5888 5888 5887 5887 5886 5885 5884 5883 5882 5881 5880 5879 5877 5876 5874 5873 5871 5869 5867 5865 5863 5861 5859 5857 5855 5853 5851 5849 5847 5845
5872 5874 5876 5877 5879 5880 5881 5885 5884 5885 5885 5885 5886 5886 5886 5886 5885 5885 5884 5884 5883 5883 5882 5882 5881 5880 5879 5878 5877 5875 5874 5873 5871 5870 5868 5866 5864 5862 5860 5858 5856 5854 5852 5850 5848 5846 5844 5842 5840
Wind_Speed
14 15 15 15 15 16 16 16 16 16 16 15 15 14 14 14 14 13 13 13 12 12 12 12 12 11 12 12 12 12 11 11 10 10 9 9 9 8 7 6 6 6 6 6 6 6 5 5 5
14 14 14 15 16 16 16 16 16 17 16 15 15 14 14 14 14 13 13 13 13 12 12 12 13 12 12 12 12 12 12 11 10 10 9 9 8 8 7 6 5 5 5 5 5 5 5 5 5
13 13 14 15 16 17 17 16 16 16 16 15 14 13 13 13 13 13 13 13 12 12 12 12 12 13 13 13 12 12 11 11 11 10 9 9 8 7 6 5 4 4 5 5 5 5 4 4 4
12 12 13 15 16 17 16 16 16 16 15 14 13 13 13 12 12 12 12 12 12 12 12 12 12 12 12 13 12 12 11 11 10 10 9 8 8 7 5 5 4 4 3 3 4 4 4 4 4
11 12 14 15 16 16 16 16 16 16 15 14 13 13 12 12 12 12 12 12 12 12 12 11 11 12 12 12 12 11 11 10 9 9 9 8 7 6 5 4 4 4 3 4 4 4 4 4 4
11 12 14 15 16 15 16 16 16 15 15 14 13 14 13 12 12 12 12 12 12 12 12 12 12 12 12 12 11 11 10 10 9 8 7 7 7 6 5 4 3 3 4 4 4 4 4 3 3
10 11 14 15 15 15 15 15 15 15 14 14 14 14 13 12 11 11 12 12 12 12 13 13 13 12 12 11 11 10 10 9 9 8 7 6 6 5 5 4 4 3 2 2 3 3 3 2 3
10 11 12 13 14 14 15 14 14 13 14 14 13 14 13 12 11 11 11 11 12 12 13 13 14 13 13 12 12 11 10 9 9 8 7 7 6 5 4 4 4 3 3 3 2 3 2 2 3
10 10 11 12 13 14 14 15 14 13 13 13 13 13 13 12 11 11 11 11 11 12 13 13 13 13 13 12 12 11 10 10 9 8 8 7 7 6 5 4 4 2 2 2 2 2 2 3 3
8 9 10 11 11 12 13 14 13 13 13 13 13 13 13 13 12 12 11 11 11 12 12 12 12 12 11 11 10 10 10 9 9 8 7 7 6 5 5 4 3 2 1 1 2 2 2 2 3
6 7 8 10 10 11 12 12 12 12 12 12 13 13 13 13 13 12 12 12 12 12 12 11 11 11 11 10 10 10 9 9 8 8 7 6 5 5 4 4 3 2 2 0 1 2 2 3 4
6 6 6 7 8 9 9 10 10 10 11 12 12 12 13 13 12 12 12 12 12 11 11 11 11 11 11 10 9 8 8 8 8 7 7 6 5 5 4 3 2 2 2 1 1 2 3 4 4
5 5 4 6 6 7 8 9 9 8 9 10 10 11 11 11 11 11 11 11 11 10 10 10 10 10 10 10 9 8 7 7 7 7 7 6 5 5 4 3 2 2 2 2 2 2 3 4 5
4 4 4 4 5 6 7 8 8 8 8 9 10 10 9 10 10 10 10 10 10 10 10 9 9 9 10 9 8 8 7 7 7 6 6 6 5 5 4 3 2 2 2 2 2 3 3 4 4
5 3 3 4 4 4 5 7 6 6 7 7 8 9 8 9 9 9 9 9 9 9 9 9 9 8 8 8 8 7 8 8 7 6 6 6 5 5 5 5 4 4 3 4 4 4 4 4 5
6 5 3 3 2 2 2 4 4 4 5 6 6 8 7 7 8 8 8 8 8 8 8 8 8 8 8 7 7 7 7 7 7 7 7 7 6 6 6 6 5 5 5 5 5 4 5 5 6
8 6 4 3 2 1 1 2 2 2 4 4 5 5 6 6 7 7 7 7 7 7 7 8 8 8 7 7 6 6 6 6 6 6 6 6 7 7 7 7 6 6 6 6 6 6 6 6 7
8 7 5 4 3 2 2 1 1 0 1 2 3 4 4 5 5 5 6 6 7 7 7 7 7 7 7 6 6 5 5 5 5 5 6 6 6 7 7 7 7 7 7 7 7 7 7 8 8
10 8 6 5 4 4 3 3 2 2 2 1 1 1 2 2 3 3 4 5 6 6 6 6 7 7 6 6 5 5 5 5 5 6 6 6 7 8 8 8 8 8 8 7 8 8 8 8 9
11 10 8 6 6 5 5 4 4 4 5 3 2 1 1 2 1 1 2 3 5 5 5 5 6 6 6 6 5 4 4 5 5 6 6 7 7 8 9 10 10 9 9 8 9 9 8 9 9
13 11 10 9 8 8 7 5 5 5 6 6 4 3 3 3 2 1 1 2 4 4 5 5 5 5 5 5 5 5 5 5 6 6 7 7 8 8 9 10 11 11 10 9 9 9 10 10 10
14 12 11 11 10 9 9 8 7 7 7 7 6 5 4 4 3 3 2 3 4 5 5 5 4 4 4 4 5 5 6 6 6 7 8 8 9 9 9 10 11 11 11 10 10 11 11 11 11
16 15 14 13 12 11 11 10 8 9 8 8 8 7 6 5 4 4 4 4 5 5 6 6 6 5 5 5 6 6 6 6 7 8 8 9 9 9 10 11 11 11 11 11 11 12 12 13 13
17 17 16 15 14 13 12 12 9 10 10 9 9 8 7 7 6 5 6 6 7 7 7 7 8 7 6 7 7 7 8 8 9 9 10 10 11 11 12 12 12 12 12 13 13 13 13 14 15
18 17 17 17 16 14 13 13 11 10 11 10 9 8 8 8 8 7 8 9 9 8 8 9 8 8 8 8 9 8 9 10 10 11 11 12 12 13 14 15 15 14 14 14 14 15 15 15 15
19 19 18 18 17 16 14 14 12 12 12 12 11 10 10 10 9 9 9 9 10 9 9 9 9 9 9 9 10 10 11 10 11 12 13 13 14 15 16 16 16 16 16 16 16 16 16 15 16
21 19 19 20 19 18 17 15 13 13 14 13 13 12 12 11 11 11 11 11 10 10 9 9 10 10 11 11 11 11 12 12 12 13 14 14 15 16 17 18 17 17 17 17 18 17 16 16 16
23 21 21 21 21 20 18 16 15 15 15 15 14 14 13 13 13 12 12 12 11 11 11 11 11 12 13 13 13 13 14 14 14 15 16 16 16 17 18 19 18 18 18 18 19 18 18 18 18
24 22 22 22 22 21 20 17 15 16 16 16 17 16 14 13 14 14 14 14 13 13 13 13 14 14 15 15 14 15 15 16 16 17 17 17 18 18 18 19 19 19 19 19 19 19 19 19 19
25 24 23 23 23 23 22 19 17 17 17 18 17 17 16 15 15 16 16 16 15 14 14 15 15 16 17 17 17 17 16 17 18 18 19 19 19 19 19 20 20 20 21 21 21 21 21 21 21
Wind_Direction
75 75 74 75 74 75 72 73 73 74 74 71 69 68 68 70 71 70 69 70 72 74 76 78 79 79 81 79 83 82 82 86 87 87 93 98 107 114 112 115 121 132 137 139 136 132 128 124 123
74 76 76 76 76 77 74 73 71 70 71 70 69 67 68 70 71 69 70 70 71 73 74 78 80 80 80 81 82 83 83 84 85 85 88 94 103 107 104 111 123 134 143 145 142 141 137 136 135
76 79 77 76 77 78 75 73 71 70 69 68 68 65 67 69 70 69 71 71 72 72 73 76 77 79 79 81 81 84 84 82 81 80 83 85 92 98 102 113 121 131 142 151 151 148 150 148 145
81 82 79 79 79 78 78 77 73 69 66 65 64 65 64 65 68 67 71 71 72 71 73 73 76 79 81 81 81 83 83 82 81 80 79 81 83 87 94 105 117 129 144 162 159 156 160 162 162
85 85 80 81 80 79 81 78 74 68 66 64 64 62 60 61 66 69 71 71 69 69 72 75 76 80 81 80 79 82 81 80 80 80 78 77 80 85 88 98 111 125 139 152 163 162 164 169 177
85 90 86 80 77 78 81 78 73 68 63 61 60 61 59 61 67 72 74 72 69 71 74 75 77 78 80 79 77 78 80 79 77 76 74 72 72 72 79 92 108 119 128 144 160 172 178 183 189
90 91 85 79 77 80 81 77 71 65 61 57 58 61 62 64 68 74 77 76 74 75 75 76 76 76 76 75 76 76 76 74 72 69 67 67 67 65 68 66 79 95 112 148 170 179 190 197 197
94 94 88 82 79 79 79 76 69 64 59 57 57 57 59 63 70 75 78 78 77 77 76 75 73 75 75 73 73 73 71 69 70 68 67 69 67 64 63 63 76 91 107 132 165 181 199 212 204
90 88 86 83 81 79 77 74 68 64 62 58 57 56 57 62 66 72 76 78 79 78 78 76 74 74 73 70 69 69 68 68 68 71 70 70 68 64 65 66 72 91 108 131 163 203 213 214 216
93 87 83 81 80 81 74 69 68 66 63 60 57 58 57 60 64 69 72 76 79 79 79 77 73 71 69 68 68 68 67 65 64 65 64 65 66 63 59 62 70 74 99 179 194 207 207 227 236
94 87 80 82 82 80 72 67 68 66 63 58 59 60 59 60 63 67 69 72 78 79 78 76 70 68 68 69 67 65 63 61 60 59 60 60 59 55 45 43 44 47 34 275 209 215 218 232 242
107 99 92 87 85 79 70 65 70 63 59 56 58 59 60 58 61 66 69 70 73 74 72 72 70 68 67 65 60 59 57 55 52 52 50 50 52 47 35 30 30 25 27 10 277 254 247 244 251
125 112 105 99 88 79 71 65 63 58 57 59 58 56 60 60 60 63 63 63 64 65 66 69 67 63 62 61 57 56 52 49 47 47 50 53 49 39 22 8 14 7 358 336 324 287 263 258 253
155 134 130 114 100 83 70 59 61 60 57 62 60 57 59 60 60 60 60 60 59 60 63 64 62 59 57 55 55 54 50 48 43 44 49 48 45 42 31 23 14 358 348 336 315 292 273 269 267
186 165 147 122 112 92 72 54 67 60 56 68 66 61 61 59 57 58 61 60 56 56 56 53 53 52 52 51 49 46 47 47 45 38 33 30 28 29 22 7 1 356 346 334 322 307 291 284 279
198 188 170 149 123 88 52 57 69 62 63 72 73 68 66 57 52 49 53 55 55 55 53 49 47 47 47 46 42 40 45 46 44 38 32 29 28 24 14 6 2 359 352 342 330 313 299 292 288
215 211 201 193 200 251 8 53 70 70 65 70 81 75 68 64 51 45 45 46 47 50 49 45 41 41 41 39 37 37 38 35 33 30 26 23 18 13 9 3 358 352 341 331 327 315 305 297 293
222 228 226 224 230 258 273 304 333 303 57 78 80 77 71 73 55 43 37 37 39 40 38 36 31 29 31 36 36 34 28 21 14 9 7 5 4 2 358 352 345 338 330 321 316 313 306 297 297
224 226 237 243 249 267 281 281 280 273 271 252 108 73 57 59 51 42 29 27 28 27 26 28 22 17 21 24 31 28 24 17 8 359 356 354 354 355 353 348 342 334 328 322 316 311 306 299 294
226 230 236 247 254 265 275 280 276 262 269 266 262 249 281 305 347 25 21 19 15 12 8 8 12 12 16 16 18 16 11 10 7 0 354 351 350 349 349 345 342 337 328 320 316 310 305 301 296
231 236 237 240 247 259 269 274 274 260 259 256 247 247 265 266 259 253 282 339 350 357 345 344 351 357 3 4 0 358 355 352 352 349 343 339 337 338 340 340 340 336 332 322 316 310 306 302 297
233 235 235 238 244 257 270 274 271 266 260 257 255 259 265 268 261 270 275 297 322 332 328 322 318 326 333 337 341 340 342 342 336 338 338 333 333 332 328 332 333 331 331 324 313 310 305 301 298
235 235 239 240 245 254 261 269 270 270 267 268 267 263 271 272 269 278 287 290 301 308 311 307 295 297 303 308 317 318 322 327 328 326 325 324 325 326 324 324 324 324 324 321 313 308 305 302 297
236 238 242 244 246 253 261 268 269 272 277 274 271 266 273 277 277 277 279 282 288 295 297 299 293 291 293 295 301 308 313 313 313 312 312 315 320 322 320 317 316 316 316 318 318 312 305 303 301
236 242 246 249 250 256 259 265 272 273 276 272 273 270 271 273 277 275 276 284 289 290 289 289 288 289 294 294 295 299 300 302 302 306 306 310 313 314 314 313 312 309 311 312 312 315 313 306 305
239 245 250 255 257 258 258 262 268 271 274 272 271 270 268 270 276 275 275 280 285 285 287 284 282 287 292 291 291 292 294 295 298 300 301 306 310 310 309 307 306 306 308 310 310 309 310 307 303
240 244 250 253 255 258 259 259 263 268 271 269 270 271 272 274 274 272 274 278 277 282 283 285 288 288 290 290 292 291 293 292 294 296 299 302 304 303 305 306 301 300 302 305 306 304 304 305 304
240 245 248 251 254 257 259 260 264 267 268 268 270 272 274 275 275 276 278 281 278 279 281 288 290 292 294 294 293 294 294 295 293 294 299 299 300 302 303 306 302 301 300 302 302 303 306 304 302
240 245 249 253 256 260 263 264 266 267 267 267 270 271 274 275 276 278 279 276 275 278 279 285 287 290 292 291 290 291 291 293 294 296 296 296 297 299 303 304 302 302 302 302 302 302 301 302 301
241 246 249 253 256 259 263 266 267 269 267 267 269 270 272 273 278 279 277 277 278 277 280 283 284 285 285 288 289 288 288 290 291 293 295 294 294 296 299 301 301 301 300 298 299 299 301 299 300